Preview of NWS' New Version of Forecast
This preview is not operational and should not be used for support decisions.

Regional Weather Roundup (RWR)

Issued by Philadelphia/Mt Holly (PHI)

                            
000
ASUS41 KPHI 230112
RWRPHI

REGIONAL WEATHER ROUNDUP
NATIONAL WEATHER SERVICE MOUNT HOLLY NJ
900 PM EDT FRI MAR 22 2019

NOTE:  "FAIR" INDICATES FEW OR NO CLOUDS BELOW 12,000 FEET WITH NO
SIGNIFICANT WEATHER AND/OR OBSTRUCTIONS TO VISIBILITY.

 * = STATION DOES NOT REPORT PRECIPITATION (E.G. RAIN, SNOW, ETC.) 
        OR FOG.

NJZ015>026-230200-
SOUTHERN NEW JERSEY
  
CITY           SKY/WX    TMP DP  RH WIND       PRES   REMARKS
POMONA         FAIR      40  35  83 W13       29.60R WCI  32          
MILLVILLE      FAIR      39  30  70 W7        29.63R WCI  34          
WRIGHTSTOWN    CLOUDY    41  31  68 W20G30    29.56R                  
MOUNT HOLLY    LGT RAIN  40  33  76 W12G26    29.61R WCI  33          
TRENTON        FAIR      40  32  73 W9G21     29.57R WCI  34          

$$
NJZ001>014-230200-
NORTHERN NEW JERSEY
  
CITY           SKY/WX    TMP DP  RH WIND       PRES   REMARKS
SUSSEX         CLOUDY    41  29  62 W14G21    29.49R                  
ANDOVER*         N/A     38  28  67 VRB3      29.52R                  
MORRISTOWN     PTCLDY    41  30  65 W16       29.52R                  
NEWARK         FAIR      43  28  55 W14G24    29.51R                  
TETERBORO      FAIR      43  29  57 W14       29.48R                  
CALDWELL       FAIR      42  28  57 W12       29.51R                  
SOMERVILLE     FAIR      40  32  73 W6        29.53R                  
ALLAIRE*       CLOUDY    40  33  76 W16G22    29.55R WCI  31          
TOMS RIVER*    CLOUDY    41  33  73 W20G26    29.57R                  

$$
PAZ043-044-047-054-055-060>062-066>071-230200-
EASTERN PENNSYLVANIA
  
CITY           SKY/WX    TMP DP  RH WIND       PRES   REMARKS
PHILADELPHIA   MOCLDY    44  30  57 NW16G35   29.63R                  
NORTH PHILA    CLOUDY    41  33  73 W9        29.62R                  
BLUE BELL*     CLOUDY    39  32  75 W12G17    29.63R WCI  32          
DOYLESTOWN     MOCLDY    38  31  76 W8G18     29.58R WCI  32          
QUAKERTOWN*    MOCLDY    37  32  81 SW14G21   29.60  WCI  29          
PERKASIE*      LGT RAIN  37  32  81 W17G26    29.60R WCI  28          
POTTSTOWN      LGT RAIN  36  31  82 NW20G31   29.64R WCI  25          
LANCASTER      MOCLDY    41  26  55 NW28G45   29.66R                  
COATESVILLE    MOCLDY    39  30  70 W21       29.65R WCI  29          
READING        FAIR      40  30  67 W23G32    29.62R WCI  30          
ALLENTOWN      LGT RAIN  39  31  72 W14G21    29.59R WCI  31          
MOUNT POCONO   FLURRIES  30  27  88 W23G38    29.49R WCI  17          
HAZLETON       FLURRIES  34  28  80 W10G24    29.60R WCI  26          
LEHIGHTON      CLOUDY    37  30  75 W12G18    29.61R WCI  30          
WILKES BARRE   FLURRIES  35  30  82 W16G25    29.58R WCI  25          

$$
DEZALL-MDZ008-012-015-019-020-230200-
DELAWARE AND EASTERN MARYLAND
  
CITY           SKY/WX    TMP DP  RH WIND       PRES   REMARKS
WILMINGTON     FAIR      42  27  55 NW21G30   29.66R                  
DOVER          FAIR      44  27  51 W23G33    29.66R                  
GEORGETOWN     FAIR      47  29  49 W15G32    29.69R                  
EASTON         PTCLDY    45  28  53 W17G28    29.76R                  
PATUXENT       FAIR      44  29  55 NW28      29.77                   
OCEAN CITY     FAIR      41  36  82 W9        29.71R                  
WALLOPS ISLAND FAIR      45  36  70 W15       29.74R                  
CAMBRIDGE      PTCLDY    45  28  53 NW15G28   29.75R                  
SALISBURY      FAIR      43  36  76 W14G21    29.72R                  

$$
PAZ001-021-NYZ056-072-MDZ011-DCZ001-230200-
OTHER NEARBY LOCATIONS
  
CITY           SKY/WX    TMP DP  RH WIND       PRES   REMARKS
HARRISBURG     MOCLDY    41  26  55 NW21G33   29.70R                  
STATE COLLEGE  FLURRIES  32  25  74 W15G30    29.75R WCI  22          
WILLIAMSPORT   CLOUDY    38  22  52 W18G25    29.68R WCI  28          
BINGHAMTON     LGT SNOW  29  24  82 NW26G38   29.54R WCI  14          
NEW YORK CITY  FAIR      44  28  53 W13G18    29.51R                  
BALTIMORE      FAIR      41  25  53 W18G31    29.74R                  
WASHINGTON DC  FAIR      45  23  42 W20G33    29.79R                  

$$